Date String (YYYY-MM-DD hh:mm:ss) UTC,Instrument flags,absolute air pressure of the measurement (hPa),sample flow rate (lpm),inlet stack bypass flow (lpm),air temperature of the measurement (°C),ambient temperature measured by the external sensor (°C),aerosol sample conditioner tube jacket temperature (°C),OPC LED temperature (°C),internal box temperature (°C),relative humidity of the measurement (%),span deviation,mass concentration of particles derived from Lorenz-Mie calculation of OPC scattering (μg/m³),mass concentration of particles derived from Lorenz-Mie calculation of OPC scattering (μg/m³),mass concentration of particles derived from Lorenz-Mie calculation of OPC scattering (μg/m³)
DateTimeUTC,F1_M11,P_M11,Q1_M11,Q2_M11,T1_M11,T2_M11,T3_M11,T4_M11,T5_M11,U1_M11,ZSPAN_M11,X0_M11,X2_M11,X1_M11
2023-09-14 07:00:00,SystemResetWarning,0829.9,5.01,000.00,028.6,027.2,000.0,036.9,030.2,16.6,0000.0,0009.25,0004.93,0004.39
2023-09-14 07:01:00,SystemResetWarning,0829.9,5.00,000.00,028.6,027.2,000.0,037.0,030.2,16.6,0000.0,0009.11,0004.90,0004.39
2023-09-14 07:02:00,SystemResetWarning,0829.9,5.00,000.00,028.6,027.2,000.0,037.0,030.2,16.6,0000.0,0009.46,0004.90,0004.39
2023-09-14 07:03:00,SystemResetWarning,0829.9,5.00,000.00,028.6,027.2,000.0,037.0,030.2,16.7,0000.0,0009.97,0004.89,0004.38
2023-09-14 07:04:00,SystemResetWarning,0829.9,5.00,000.00,028.6,027.2,000.0,037.0,030.2,16.6,0000.0,0009.97,0004.92,0004.38
2023-09-14 07:05:00,SystemResetWarning,0830.0,5.00,000.00,028.7,027.2,000.0,037.0,030.2,16.6,0000.0,0009.95,0004.95,0004.38
2023-09-14 07:06:00,SystemResetWarning,0830.0,5.00,000.00,028.7,027.2,000.0,037.0,030.2,16.6,0000.0,0010.19,0004.98,0004.39
2023-09-14 07:07:00,SystemResetWarning,0830.0,4.99,000.00,028.7,027.2,000.0,037.0,030.2,16.6,0000.0,0010.03,0004.96,0004.40
2023-09-14 07:08:00,SystemResetWarning,0829.9,5.01,000.00,028.7,027.2,000.0,037.0,030.3,16.5,0000.0,0010.09,0004.95,0004.40
2023-09-14 07:09:00,SystemResetWarning,0830.0,5.00,000.00,028.7,027.2,000.0,037.0,030.2,16.5,0000.0,0009.81,0004.96,0004.41
2023-09-14 07:10:00,SystemResetWarning,0830.0,5.00,000.00,028.7,027.2,000.0,037.0,030.3,16.5,0000.0,0009.78,0004.94,0004.41
2023-09-14 07:11:00,SystemResetWarning,0830.0,5.00,000.00,028.7,027.2,000.0,037.0,030.3,16.5,0000.0,0009.90,0004.93,0004.40
2023-09-14 07:12:00,SystemResetWarning,0830.0,5.00,000.00,028.7,027.2,000.0,037.0,030.3,16.5,0000.0,0009.92,0004.93,0004.39
2023-09-14 07:13:00,SystemResetWarning,0830.0,5.00,000.00,028.7,027.2,000.0,037.0,030.3,16.5,0000.0,0009.61,0004.94,0004.39
2023-09-14 07:14:00,SystemResetWarning,0830.0,5.00,000.00,028.7,027.2,000.0,037.0,030.2,16.4,0000.0,0009.14,0004.96,0004.40
2023-09-14 07:15:00,SystemResetWarning,0830.0,5.00,000.00,028.7,027.2,000.0,037.0,030.3,16.4,0000.0,0008.83,0004.94,0004.41
2023-09-14 07:16:00,SystemResetWarning,0830.0,4.99,000.00,028.7,027.2,000.0,037.0,030.3,16.4,0000.0,0009.36,0004.95,0004.43
2023-09-14 07:17:00,SystemResetWarning,0830.0,4.99,000.00,028.7,027.2,000.0,037.0,030.3,16.4,0000.0,0009.95,0004.98,0004.44
2023-09-14 07:18:00,SystemResetWarning,0830.0,4.99,000.00,028.7,027.2,000.0,037.0,030.3,16.4,0000.0,0009.98,0004.99,0004.46
2023-09-14 07:19:00,SystemResetWarning,0830.0,5.00,000.00,028.7,027.2,000.0,037.0,030.2,16.5,0000.0,0010.67,0005.00,0004.47
2023-09-14 07:20:00,SystemResetWarning,0830.0,5.00,000.00,028.7,027.2,000.0,037.1,030.2,16.6,0000.0,0010.78,0005.00,0004.47
2023-09-14 07:21:00,SystemResetWarning,0830.0,5.00,000.00,028.7,027.2,000.0,037.1,030.2,16.6,0000.0,0010.82,0005.00,0004.49
2023-09-14 07:22:00,SystemResetWarning,0830.0,5.00,000.00,028.7,027.2,000.0,037.1,030.3,16.7,0000.0,0010.68,0005.00,0004.50
2023-09-14 07:23:00,SystemResetWarning,0830.0,5.00,000.00,028.7,027.2,000.0,037.1,030.3,16.7,0000.0,0010.80,0005.05,0004.52
2023-09-14 07:24:00,SystemResetWarning,0830.0,5.00,000.00,028.7,027.2,000.0,037.1,030.3,16.7,0000.0,0010.88,0005.08,0004.53
2023-09-14 07:25:00,SystemResetWarning,0830.0,5.00,000.00,028.7,027.2,000.0,037.1,030.3,16.5,0000.0,0011.04,0005.10,0004.54
2023-09-14 07:26:00,SystemResetWarning,0830.0,5.00,000.00,028.7,027.2,000.0,037.1,030.3,16.9,0000.0,0011.36,0005.12,0004.54
2023-09-14 07:27:00,SystemResetWarning,0830.1,5.00,000.00,028.7,027.2,000.0,037.1,030.3,17.5,0000.0,0011.16,0005.17,0004.54
2023-09-14 07:28:00,SystemResetWarning,0830.0,4.99,000.00,028.7,027.2,000.0,037.1,030.3,17.4,0000.0,0011.08,0005.17,0004.53
2023-09-14 07:29:00,SystemResetWarning,0830.0,4.99,000.00,028.7,027.2,000.0,037.1,030.3,16.8,0000.0,0011.35,0005.15,0004.53
2023-09-14 07:30:00,SystemResetWarning,0830.0,5.00,000.00,028.8,027.2,000.0,037.1,030.3,16.8,0000.0,0011.08,0005.16,0004.53
2023-09-14 07:31:00,SystemResetWarning,0830.0,5.01,000.00,028.7,027.2,000.0,037.1,030.3,16.7,0000.0,0010.71,0005.16,0004.53
2023-09-14 07:32:00,SystemResetWarning,0830.0,5.00,000.00,028.8,027.2,000.0,037.1,030.3,17.0,0000.0,0010.67,0005.18,0004.54
2023-09-14 07:33:00,SystemResetWarning,0830.0,5.00,000.00,028.8,027.3,000.0,037.1,030.3,17.2,0000.0,0010.72,0005.17,0004.54
2023-09-14 07:34:00,SystemResetWarning,0830.0,5.00,000.00,028.8,027.3,000.0,037.1,030.4,16.9,0000.0,0010.52,0005.13,0004.53
2023-09-14 07:35:00,SystemResetWarning,0830.1,5.00,000.00,028.8,027.3,000.0,037.1,030.3,16.7,0000.0,0011.16,0005.11,0004.52
2023-09-14 07:36:00,SystemResetWarning,0830.0,5.00,000.00,028.8,027.3,000.0,037.1,030.3,16.6,0000.0,0011.62,0005.11,0004.52
2023-09-14 07:37:00,SystemResetWarning,0830.0,5.00,000.00,028.8,027.3,000.0,037.1,030.3,16.6,0000.0,0011.39,0005.12,0004.54
2023-09-14 07:38:00,SystemResetWarning,0830.0,5.00,000.00,028.8,027.3,000.0,037.1,030.3,17.0,0000.0,0011.46,0005.10,0004.53
2023-09-14 07:39:00,SystemResetWarning,0830.0,5.00,000.00,028.8,027.3,000.0,037.1,030.3,16.7,0000.0,0010.70,0005.09,0004.53
2023-09-14 07:40:00,SystemResetWarning,0830.0,4.99,000.00,028.8,027.3,000.0,037.1,030.3,16.7,0000.0,0010.66,0005.09,0004.52
2023-09-14 07:41:00,SystemResetWarning,0830.1,5.00,000.00,028.8,027.3,000.0,037.1,030.4,16.6,0000.0,0011.02,0005.09,0004.52
2023-09-14 07:42:00,SystemResetWarning,0830.0,4.99,000.00,028.8,027.3,000.0,037.1,030.4,17.2,0000.0,0010.97,0005.10,0004.53
2023-09-14 07:43:00,SystemResetWarning,0830.0,5.00,000.00,028.8,027.3,000.0,037.2,030.4,17.2,0000.0,0011.04,0005.13,0004.52
2023-09-14 07:44:00,SystemResetWarning,0830.0,5.00,000.00,028.8,027.3,000.0,037.2,030.4,17.0,0000.0,0011.75,0005.16,0004.52
2023-09-14 07:45:00,SystemResetWarning,0830.0,5.00,000.00,028.8,027.3,000.0,037.2,030.4,16.8,0000.0,0011.86,0005.20,0004.51
2023-09-14 07:46:00,SystemResetWarning,0830.0,5.00,000.00,028.8,027.3,000.0,037.2,030.4,16.7,0000.0,0011.91,0005.21,0004.51
2023-09-14 07:47:00,SystemResetWarning,0830.0,5.00,000.00,028.8,027.3,000.0,037.2,030.4,16.7,0000.0,0011.05,0005.20,0004.51
2023-09-14 07:48:00,SystemResetWarning,0830.0,5.00,000.00,028.8,027.3,000.0,037.2,030.4,16.6,0000.0,0011.13,0005.21,0004.50
2023-09-14 07:49:00,SystemResetWarning,0830.1,5.01,000.00,028.8,027.3,000.0,037.2,030.4,16.6,0000.0,0010.91,0005.17,0004.49
2023-09-14 07:50:00,SystemResetWarning,0830.0,5.00,000.00,028.8,027.3,000.0,037.2,030.4,16.6,0000.0,0011.53,0005.13,0004.49
2023-09-14 07:51:00,SystemResetWarning,0830.0,5.00,000.00,028.8,027.3,000.0,037.2,030.4,16.6,0000.0,0011.44,0005.12,0004.48
2023-09-14 07:52:00,SystemResetWarning,0830.0,5.00,000.00,028.8,027.3,000.0,037.2,030.4,16.6,0000.0,0010.79,0005.14,0004.47
2023-09-14 07:53:00,SystemResetWarning,0830.0,5.00,000.00,028.8,027.3,000.0,037.2,030.4,16.6,0000.0,0011.06,0005.17,0004.46
2023-09-14 07:54:00,SystemResetWarning,0830.1,5.00,000.00,028.8,027.3,000.0,037.2,030.4,16.6,0000.0,0011.41,0005.13,0004.46
2023-09-14 07:55:00,SystemResetWarning,0830.0,5.00,000.00,028.8,027.3,000.0,037.2,030.4,16.6,0000.0,0010.86,0005.11,0004.45
2023-09-14 07:56:00,SystemResetWarning,0830.0,5.02,000.00,028.9,027.4,000.0,037.2,030.4,16.6,0000.0,0010.60,0005.08,0004.44
2023-09-14 07:57:00,SystemResetWarning,0830.1,5.00,000.00,028.9,027.4,000.0,037.2,030.4,16.7,0000.0,0010.78,0005.07,0004.43
2023-09-14 07:58:00,SystemResetWarning,0830.1,4.99,000.00,028.9,027.4,000.0,037.2,030.4,16.6,0000.0,0011.09,0005.07,0004.43
2023-09-14 07:59:00,SystemResetWarning,0830.1,5.00,000.00,028.9,027.4,000.0,037.2,030.4,16.6,0000.0,0011.24,0005.04,0004.43
